Terminal Aerodrome Forecast
Issued by NWS Indianapolis, IN

Home | Current Version | Previous Version | Text Only | Print | Product List | Glossary On
Versions: 1 2 3 4 5 6 7 8 9 10 11 12 13 14 15 16 17 18 19 20 21 22 23 24 25 26
000
FTUS43 KIND 180200 AAA
TAFIND
TAF AMD
KIND 180223Z 1802/1906 VRB04KT P6SM FEW040 BKN100
     FM180900 05005KT 6SM BR SCT100
     FM181300 08008KT P6SM SCT035=

USA.gov is the U.S. government's official web portal to all federal, state and local government web resources and services.